ARG1681 SAZS-SABE

Flight info

Callsign ARG1681
Flight time N/A
Altitude 35000
Route LIMAY2C LIMAY UW26 EGUNO UZ109 ISMIL UT655 ASADA ASADA9R
Aircraft B738/M-MSDFGHILRVWS/LB1

Departure

Time 2026-04-28 00:56
Airport Teniente Luis Candelaria International Airport (SAZS)

Arrival

Time N/A
Airport Aeroparque Jorge Newbery (SABE)
Time Latitude Longitude Altitude Speed Heading
2026-04-28 00:31 -41.14698 -71.16157 2748 ft 0 kts 58°
2026-04-28 00:44 -41.14699 -71.16160 2748 ft 3 kts 58°
2026-04-28 00:44 -41.14714 -71.16188 2750 ft 4 kts 43°
2026-04-28 00:44 -41.14734 -71.16204 2749 ft 4 kts 350°
2026-04-28 00:45 -41.14754 -71.16195 2749 ft 4 kts 344°
2026-04-28 00:45 -41.14780 -71.16191 2750 ft 4 kts 16°
2026-04-28 00:45 -41.14796 -71.16204 2751 ft 4 kts 95°
2026-04-28 00:45 -41.14787 -71.16235 2751 ft 4 kts 113°
2026-04-28 00:46 -41.14779 -71.16259 2752 ft 0 kts 115°
2026-04-28 00:48 -41.14782 -71.16252 2752 ft 4 kts 115°
2026-04-28 00:49 -41.14798 -71.16204 2750 ft 6 kts 115°
2026-04-28 00:49 -41.14816 -71.16153 2748 ft 6 kts 115°
2026-04-28 00:49 -41.14833 -71.16103 2748 ft 6 kts 115°
2026-04-28 00:49 -41.14854 -71.16043 2748 ft 9 kts 115°
2026-04-28 00:50 -41.14887 -71.15951 2750 ft 13 kts 115°
2026-04-28 00:50 -41.14931 -71.15825 2748 ft 16 kts 115°
2026-04-28 00:50 -41.14976 -71.15697 2748 ft 15 kts 115°
2026-04-28 00:50 -41.15019 -71.15576 2748 ft 14 kts 115°
2026-04-28 00:51 -41.15060 -71.15457 2748 ft 14 kts 114°
2026-04-28 00:51 -41.15099 -71.15345 2750 ft 13 kts 115°
2026-04-28 00:51 -41.15137 -71.15236 2748 ft 13 kts 115°
2026-04-28 00:51 -41.15173 -71.15131 2749 ft 12 kts 114°
2026-04-28 00:52 -41.15209 -71.15028 2748 ft 12 kts 115°
2026-04-28 00:52 -41.15244 -71.14928 2750 ft 12 kts 115°
2026-04-28 00:52 -41.15279 -71.14830 2748 ft 12 kts 115°
2026-04-28 00:52 -41.15312 -71.14735 2750 ft 11 kts 115°
2026-04-28 00:53 -41.15343 -71.14643 2751 ft 11 kts 115°
2026-04-28 00:53 -41.15375 -71.14554 2748 ft 11 kts 115°
2026-04-28 00:53 -41.15408 -71.14479 2749 ft 9 kts 141°
2026-04-28 00:53 -41.15454 -71.14477 2748 ft 0 kts 202°
2026-04-28 00:55 -41.15460 -71.14480 2748 ft 5 kts 202°
2026-04-28 00:55 -41.15512 -71.14513 2748 ft 10 kts 211°
2026-04-28 00:55 -41.15521 -71.14598 2748 ft 10 kts 296°
2026-04-28 00:55 -41.15434 -71.14848 2751 ft 63 kts 295°
2026-04-28 00:56 -41.15157 -71.15645 2749 ft 125 kts 295°
2026-04-28 00:56 -41.14734 -71.16848 3053 ft 153 kts 295°
2026-04-28 00:56 -41.14259 -71.18188 3632 ft 166 kts 295°
2026-04-28 00:56 -41.13770 -71.19601 4346 ft 174 kts 295°
2026-04-28 00:57 -41.13241 -71.21120 4890 ft 191 kts 294°
2026-04-28 00:57 -41.12687 -71.22744 5486 ft 195 kts 292°
2026-04-28 00:57 -41.12119 -71.24424 5965 ft 207 kts 292°
2026-04-28 00:57 -41.11512 -71.26254 6257 ft 228 kts 291°
2026-04-28 00:58 -41.10868 -71.28240 6770 ft 240 kts 291°
2026-04-28 00:58 -41.10190 -71.30283 7548 ft 243 kts 290°
2026-04-28 00:58 -41.09394 -71.32288 8283 ft 254 kts 306°
2026-04-28 00:58 -41.07877 -71.33620 8968 ft 274 kts 338°
2026-04-28 00:59 -41.05935 -71.33896 9639 ft 291 kts
2026-04-28 00:59 -41.04003 -71.33074 10259 ft 303 kts 31°
2026-04-28 00:59 -41.02478 -71.31181 10988 ft 302 kts 60°
2026-04-28 00:59 -41.01662 -71.28660 11760 ft 297 kts 78°
2026-04-28 01:00 -41.01147 -71.26012 12489 ft 298 kts 82°
2026-04-28 01:00 -41.00418 -71.23405 13177 ft 308 kts 63°
2026-04-28 01:00 -40.99309 -71.20974 13947 ft 310 kts 62°
2026-04-28 01:00 -40.98221 -71.18506 14630 ft 311 kts 63°
2026-04-28 01:01 -40.97154 -71.15989 15265 ft 316 kts 64°
2026-04-28 01:01 -40.96092 -71.13435 15924 ft 318 kts 64°
2026-04-28 01:01 -40.95038 -71.10890 16532 ft 322 kts 64°
2026-04-28 01:01 -40.93942 -71.08239 16868 ft 339 kts 64°
2026-04-28 01:02 -40.92775 -71.05418 17029 ft 360 kts 64°
2026-04-28 01:02 -40.91540 -71.02441 17194 ft 379 kts 64°
2026-04-28 01:02 -40.90238 -70.99310 17408 ft 397 kts 64°
2026-04-28 01:02 -40.88893 -70.96083 17897 ft 405 kts 64°
2026-04-28 01:03 -40.87525 -70.92812 18511 ft 408 kts 63°
2026-04-28 01:03 -40.86164 -70.89557 19096 ft 411 kts 64°
2026-04-28 01:03 -40.84777 -70.86242 19668 ft 416 kts 64°
2026-04-28 01:03 -40.83367 -70.82873 20106 ft 422 kts 64°
2026-04-28 01:04 -40.81939 -70.79463 20641 ft 425 kts 64°
2026-04-28 01:04 -40.80503 -70.76040 21202 ft 428 kts 64°
2026-04-28 01:04 -40.79054 -70.72589 21736 ft 431 kts 64°
2026-04-28 01:04 -40.77594 -70.69112 22232 ft 436 kts 65°
2026-04-28 01:05 -40.76118 -70.65601 22741 ft 439 kts 65°
2026-04-28 01:05 -40.74562 -70.62108 23216 ft 445 kts 59°
2026-04-28 01:05 -40.72639 -70.58942 23694 ft 451 kts 50°
2026-04-28 01:05 -40.70484 -70.55919 24123 ft 454 kts 49°
2026-04-28 01:06 -40.68293 -70.52900 24559 ft 456 kts 49°
2026-04-28 01:06 -40.66110 -70.49862 25055 ft 457 kts 49°
2026-04-28 01:06 -40.63941 -70.46798 25484 ft 459 kts 50°
2026-04-28 01:06 -40.61768 -70.43702 25860 ft 462 kts 50°
2026-04-28 01:07 -40.59616 -70.40552 26237 ft 463 kts 53°
2026-04-28 01:07 -40.57616 -70.37220 26619 ft 465 kts 56°
2026-04-28 01:07 -40.55708 -70.33856 27023 ft 466 kts 57°
2026-04-28 01:07 -40.54413 -70.31531 27281 ft 468 kts 57°
2026-04-28 01:08 -40.51865 -70.26945 27764 ft 471 kts 57°
2026-04-28 01:08 -40.49917 -70.23467 28122 ft 473 kts 57°
2026-04-28 01:08 -40.47952 -70.19989 28504 ft 475 kts 57°
2026-04-28 01:08 -40.45969 -70.16507 28886 ft 477 kts 56°
2026-04-28 01:09 -40.43975 -70.13023 29285 ft 478 kts 56°
2026-04-28 01:09 -40.41972 -70.09536 29612 ft 480 kts 56°
2026-04-28 01:09 -40.39984 -70.06082 29916 ft 482 kts 56°
2026-04-28 01:09 -40.37956 -70.02560 30195 ft 484 kts 56°
2026-04-28 01:10 -40.35922 -69.99032 30447 ft 486 kts 56°
2026-04-28 01:10 -40.33877 -69.95490 30705 ft 488 kts 56°
2026-04-28 01:10 -40.31827 -69.91941 31000 ft 489 kts 56°
2026-04-28 01:10 -40.29775 -69.88394 31352 ft 487 kts 56°
2026-04-28 01:11 -40.27733 -69.84867 31783 ft 485 kts 56°
2026-04-28 01:11 -40.25698 -69.81357 32178 ft 483 kts 56°
2026-04-28 01:11 -40.23697 -69.77909 32524 ft 482 kts 56°
2026-04-28 01:11 -40.21665 -69.74409 32825 ft 482 kts 56°
2026-04-28 01:12 -40.19635 -69.70916 33107 ft 483 kts 56°
2026-04-28 01:12 -40.17600 -69.67419 33443 ft 482 kts 56°
2026-04-28 01:12 -40.15575 -69.63943 33790 ft 481 kts 56°
2026-04-28 01:12 -40.13546 -69.60467 34071 ft 481 kts 55°
2026-04-28 01:13 -40.11519 -69.56994 34264 ft 482 kts 55°
2026-04-28 01:13 -40.07436 -69.50012 34646 ft 484 kts 54°
2026-04-28 01:13 -40.05418 -69.46569 34875 ft 484 kts 54°
2026-04-28 01:14 -40.03370 -69.43076 35024 ft 486 kts 54°
2026-04-28 01:14 -40.01305 -69.39559 35011 ft 489 kts 54°
2026-04-28 01:14 -39.97166 -69.32523 35020 ft 487 kts 54°
2026-04-28 01:15 -39.93060 -69.25562 35016 ft 482 kts 54°
2026-04-28 01:15 -39.89001 -69.18691 35029 ft 481 kts 54°
2026-04-28 01:16 -39.84920 -69.11798 35005 ft 481 kts 54°
2026-04-28 01:16 -39.80835 -69.04913 35008 ft 480 kts 53°
2026-04-28 01:17 -39.76745 -68.98036 35021 ft 481 kts 53°
2026-04-28 01:17 -39.72649 -68.91163 35016 ft 482 kts 53°
2026-04-28 01:18 -39.68568 -68.84330 35037 ft 483 kts 53°
2026-04-28 01:18 -39.64443 -68.77438 35023 ft 484 kts 53°
2026-04-28 01:19 -39.61001 -68.71700 35021 ft 485 kts 53°
2026-04-28 01:19 -39.56148 -68.63626 35018 ft 486 kts 53°
2026-04-28 01:20 -39.52010 -68.56757 34999 ft 487 kts 52°
2026-04-28 01:20 -39.47838 -68.49847 35017 ft 488 kts 52°
2026-04-28 01:21 -39.43655 -68.42934 35007 ft 488 kts 52°
2026-04-28 01:21 -39.39467 -68.36027 35005 ft 488 kts 52°
2026-04-28 01:22 -39.35276 -68.29128 35002 ft 488 kts 52°
2026-04-28 01:22 -39.31111 -68.22292 35001 ft 487 kts 52°
2026-04-28 01:23 -39.26912 -68.15422 34999 ft 487 kts 51°
2026-04-28 01:23 -39.22718 -68.08571 34972 ft 486 kts 51°
2026-04-28 01:24 -39.19232 -68.02885 34992 ft 486 kts 51°
2026-04-28 01:24 -39.15040 -67.96062 34993 ft 486 kts 51°
2026-04-28 01:25 -39.10160 -67.88137 34992 ft 486 kts 51°
2026-04-28 01:25 -39.06664 -67.82471 34996 ft 486 kts 51°
2026-04-28 01:26 -39.02453 -67.75660 34998 ft 487 kts 51°
2026-04-28 01:26 -38.98234 -67.68851 34995 ft 487 kts 51°
2026-04-28 01:27 -38.94003 -67.62037 34993 ft 488 kts 51°
2026-04-28 01:27 -38.89792 -67.55269 34989 ft 488 kts 51°
2026-04-28 01:28 -38.85546 -67.48458 34994 ft 489 kts 50°
2026-04-28 01:28 -38.81297 -67.41660 34996 ft 489 kts 50°
2026-04-28 01:29 -38.77041 -67.34863 34997 ft 488 kts 50°
2026-04-28 01:29 -38.72788 -67.28085 34995 ft 488 kts 50°
2026-04-28 01:30 -38.68558 -67.21357 35002 ft 488 kts 50°
2026-04-28 01:30 -38.64295 -67.14592 34992 ft 488 kts 50°
2026-04-28 01:31 -38.60026 -67.07833 34980 ft 488 kts 49°
2026-04-28 01:31 -38.55792 -67.01140 34991 ft 488 kts 49°
2026-04-28 01:32 -38.51519 -66.94403 34994 ft 488 kts 49°
2026-04-28 01:32 -38.47244 -66.87674 34996 ft 489 kts 49°
2026-04-28 01:33 -38.42952 -66.80933 34997 ft 490 kts 48°
2026-04-28 01:33 -38.38649 -66.74187 35002 ft 491 kts 48°
2026-04-28 01:34 -38.34369 -66.67462 34994 ft 493 kts 51°
2026-04-28 01:34 -38.30840 -66.59961 35003 ft 495 kts 61°
2026-04-28 01:35 -38.27643 -66.52174 35002 ft 497 kts 61°
2026-04-28 01:35 -38.24422 -66.44392 34982 ft 497 kts 60°
2026-04-28 01:36 -38.21156 -66.36636 34999 ft 498 kts 59°
2026-04-28 01:36 -38.17887 -66.28940 35003 ft 499 kts 59°
2026-04-28 01:37 -38.14578 -66.21175 35016 ft 500 kts 59°
2026-04-28 01:37 -38.11265 -66.13412 35013 ft 500 kts 59°
2026-04-28 01:38 -38.07942 -66.05643 35008 ft 501 kts 59°
2026-04-28 01:38 -38.04640 -65.97937 35005 ft 500 kts 59°
2026-04-28 01:39 -38.01310 -65.90189 35014 ft 500 kts 59°
2026-04-28 01:39 -37.97980 -65.82458 35021 ft 499 kts 59°
2026-04-28 01:40 -37.94649 -65.74744 35020 ft 499 kts 58°
2026-04-28 01:40 -37.92441 -65.69640 35020 ft 499 kts 58°